Wallops Island, VA

11:04 AM EDT on August 17, 2017 (GMT -0400)
Wallops Flight Facility

Weather History for KWAL - October, 2013

Change the Weather History Date:

Thursday, October 10, 2013

  Actual Average Record
Temperature  
Mean Temperature 67 °F 61 °F  
Max Temperature 69 °F 70 °F 83 °F (1990)
Min Temperature 64 °F 52 °F 38 °F (2000)
Degree Days  
Heating Degree Days 0    
Month to date heating degree days 4  
Since 1 July heating degree days 26  
Cooling Degree Days 2    
Month to date cooling degree days 71  
Year to date cooling degree days 1499  
Growing Degree Days 16 (Base 50)    
Moisture  
Dew Point 65 °F    
Average Humidity 94    
Maximum Humidity 100    
Minimum Humidity 87    
Precipitation  
Precipitation 0.67 in 0.10 in 0.67 in (2013)
Month to date precipitation 3.69 1.04  
Year to date precipitation 34.35 32.41  
Sea Level Pressure  
Sea Level Pressure 29.95 in    
Wind  
Wind Speed 20 mph (ENE)    
Max Wind Speed 33 mph    
Max Gust Speed 43 mph    
Visibility 3 miles    
Events Rain    
T = Trace of Precipitation, MM = Missing Value Source: NWS Daily Summary

Daily Weather History Graph

Daily Weather History Graph

Search for Another Location

Airport or City:

Trip Planner

Search our weather history database for the weather conditions in past years. The results will help you decide how hot, cold, wet, or windy it might be!

Date:

Astronomy

Oct. 10, 2013 Rise Set
Actual Time 7:05 AM EDT 6:31 PM EDT
Civil Twilight 6:39 AM EDT 6:57 PM EDT
Nautical Twilight 6:09 AM EDT 7:27 PM EDT
Astronomical Twilight 5:38 AM EDT 7:58 PM EDT
Moon 12:51 PM EDT (10/10) 11:10 PM EDT (10/10)
Length of Visible Light 12h 17m
Length of Day
11h 25m
Waxing Crescent, 35% of the Moon is Illuminated
Oct 10
Waxing Crescent
Oct 11
First Quarter
Oct 18
Full
Oct 26
Last Quarter
Nov 3
New

Hourly Weather History & Observations

Time (EDT) Temp. Dew Point Humidity Pressure Visibility Wind Dir Wind Speed Gust Speed Precip Events Conditions
12:05 AM 63.0 °F 61.0 °F 93% 30.05 in 2.0 mi NE 20.7 mph 31.1 mph 0.10 in Rain Heavy Rain
12:17 AM 64.0 °F 61.0 °F 90% 30.05 in 2.5 mi NE 26.5 mph 38.0 mph 0.19 in Rain Rain
12:31 AM 64.0 °F 61.0 °F 90% 30.04 in 3.0 mi NE 19.6 mph 35.7 mph 0.27 in Rain Rain
12:39 AM 64.0 °F 61.0 °F 90% 30.04 in 4.0 mi NE 23.0 mph 32.2 mph 0.28 in Rain Light Rain
12:50 AM 64.4 °F 60.8 °F 88% 30.04 in 2.0 mi NE 20.7 mph 28.8 mph 0.33 in Rain Heavy Rain
12:54 AM 64.0 °F 61.0 °F 90% 30.04 in 2.0 mi NE 16.1 mph 28.8 mph 0.38 in Rain Heavy Rain
1:00 AM 64.0 °F 61.0 °F 90% 30.05 in 3.0 mi NE 12.7 mph 23.0 mph 0.04 in Rain Rain
1:14 AM 64.0 °F 61.0 °F 90% 30.04 in 4.0 mi NE 16.1 mph 25.3 mph 0.08 in Rain Rain
1:18 AM 64.0 °F 61.0 °F 90% 30.03 in 4.0 mi NNE 12.7 mph 23.0 mph 0.09 in Rain Rain
1:41 AM 64.0 °F 62.1 °F 93% 30.02 in 2.5 mi NE 26.5 mph 35.7 mph 0.19 in Rain Heavy Rain
1:54 AM 64.0 °F 62.1 °F 93% 30.01 in 5.0 mi NE 18.4 mph 33.4 mph 0.24 in Rain Light Rain
2:07 AM 64.0 °F 62.1 °F 93% 30.01 in 5.0 mi NE 20.7 mph 35.7 mph 0.01 in Rain Light Rain
2:51 AM 64.4 °F 62.6 °F 94% 30.01 in 9.0 mi ENE 28.8 mph 39.1 mph 0.03 in   Overcast
2:54 AM 64.9 °F 62.1 °F 90% 30.00 in 9.0 mi ENE 27.6 mph 39.1 mph 0.03 in   Overcast
3:54 AM 64.9 °F 62.1 °F 90% 29.99 in 9.0 mi ENE 25.3 mph 36.8 mph 0.00 in Rain Light Rain
4:54 AM 64.9 °F 62.1 °F 90% 29.98 in 10.0 mi ENE 29.9 mph 36.8 mph 0.00 in   Overcast
5:54 AM 66.0 °F 63.0 °F 90% 29.99 in 7.0 mi ENE 23.0 mph 34.5 mph 0.00 in   Overcast
6:54 AM 66.0 °F 64.0 °F 93% 29.99 in 7.0 mi ENE 21.9 mph 33.4 mph 0.00 in Rain Light Rain
7:54 AM 66.0 °F 64.0 °F 93% 29.99 in 2.0 mi ENE 21.9 mph 29.9 mph 0.05 in Rain Rain
8:01 AM 66.0 °F 64.0 °F 93% 29.99 in 1.2 mi ENE 21.9 mph 34.5 mph 0.03 in Rain Rain
8:19 AM 66.0 °F 64.0 °F 93% 29.99 in 2.0 mi ENE 25.3 mph 33.4 mph 0.06 in Rain Light Rain
8:41 AM 66.0 °F 64.0 °F 93% 29.99 in 1.8 mi ENE 26.5 mph 32.2 mph 0.11 in Rain Rain
8:50 AM 66.2 °F 64.4 °F 94% 29.98 in 2.0 mi ENE 24.2 mph 34.5 mph 0.12 in Rain Rain
8:54 AM 66.0 °F 64.0 °F 93% 29.97 in 2.0 mi ENE 23.0 mph 35.7 mph 0.14 in Rain Rain
9:02 AM 66.9 °F 64.0 °F 90% 29.97 in 3.0 mi ENE 26.5 mph 34.5 mph 0.00 in Rain Light Rain
9:23 AM 66.9 °F 64.9 °F 93% 29.95 in 4.0 mi ENE 26.5 mph 39.1 mph 0.01 in Rain Light Rain
9:54 AM 66.9 °F 64.9 °F 93% 29.96 in 6.0 mi ENE 21.9 mph 35.7 mph 0.02 in Rain Light Rain
10:07 AM 66.9 °F 64.9 °F 93% 29.98 in 5.0 mi ENE 20.7 mph 29.9 mph 0.00 in Rain Light Rain
10:50 AM 66.2 °F 66.2 °F 100% 29.96 in 2.0 mi ENE 20.7 mph - 0.05 in Rain Heavy Rain
10:54 AM 66.9 °F 66.0 °F 97% 29.95 in 2.0 mi ENE 20.7 mph 29.9 mph 0.08 in Rain Heavy Rain
11:11 AM 66.9 °F 66.0 °F 97% 29.96 in 2.5 mi ENE 21.9 mph 28.8 mph 0.05 in Rain Rain
11:18 AM 68.0 °F 66.0 °F 93% 29.96 in 3.0 mi ENE 20.7 mph 28.8 mph 0.07 in Rain Rain
11:25 AM 68.0 °F 66.0 °F 93% 29.94 in 2.5 mi ENE 24.2 mph 31.1 mph 0.09 in Rain Rain
11:54 AM 68.0 °F 66.9 °F 96% 29.92 in 3.0 mi ENE 20.7 mph 31.1 mph 0.12 in   Overcast
12:20 PM 68.0 °F 66.9 °F 96% 29.94 in 2.0 mi ENE 19.6 mph - N/A   Overcast
12:36 PM 68.0 °F 66.9 °F 96% 29.94 in 1.8 mi NE 18.4 mph 25.3 mph 0.00 in Rain Light Rain
12:44 PM 69.1 °F 68.0 °F 96% 29.94 in 2.5 mi NE 18.4 mph 27.6 mph 0.00 in Rain Light Rain
12:54 PM 69.1 °F 68.0 °F 96% 29.94 in 3.0 mi NE 18.4 mph 27.6 mph 0.00 in   Overcast
1:42 PM 68.0 °F 66.9 °F 96% 29.93 in 2.0 mi ENE 20.7 mph 27.6 mph N/A   Overcast
1:50 PM 68.0 °F 66.2 °F 94% 29.93 in 1.5 mi ENE 20.7 mph 27.6 mph N/A   Overcast
1:54 PM 68.0 °F 66.9 °F 96% 29.92 in 1.5 mi ENE 18.4 mph 26.5 mph N/A   Overcast
2:54 PM 68.0 °F 68.0 °F 100% 29.91 in 1.2 mi ENE 17.3 mph - N/A   Overcast
3:37 PM 69.1 °F 68.0 °F 96% 29.90 in 2.5 mi ENE 21.9 mph 29.9 mph 0.00 in   Overcast
3:44 PM 69.1 °F 68.0 °F 96% 29.90 in 1.8 mi ENE 20.7 mph 29.9 mph 0.00 in   Overcast
3:54 PM 69.1 °F 68.0 °F 96% 29.89 in 1.2 mi ENE 18.4 mph - 0.00 in   Overcast
4:14 PM 69.1 °F 68.0 °F 96% 29.90 in 2.5 mi ENE 21.9 mph 27.6 mph N/A   Overcast
4:30 PM 69.1 °F 68.0 °F 96% 29.90 in 1.8 mi ENE 19.6 mph 26.5 mph N/A   Overcast
4:52 PM 68.0 °F 68.0 °F 100% 29.89 in 2.0 mi ENE 20.7 mph 31.1 mph N/A   Overcast
4:54 PM 68.0 °F 68.0 °F 100% 29.89 in 2.0 mi ENE 20.7 mph 31.1 mph N/A   Overcast
4:59 PM 68.0 °F 68.0 °F 100% 29.89 in 3.0 mi ENE 21.9 mph 31.1 mph N/A   Overcast
5:28 PM 68.0 °F 66.9 °F 96% 29.89 in 2.0 mi ENE 21.9 mph 28.8 mph N/A   Overcast
5:45 PM 68.0 °F 66.9 °F 96% 29.89 in 1.8 mi ENE 20.7 mph - N/A   Overcast
5:54 PM 68.0 °F 66.9 °F 96% 29.88 in 1.5 mi ENE 21.9 mph 29.9 mph N/A   Overcast
6:39 PM 68.0 °F 66.9 °F 96% 29.89 in 2.0 mi NE 17.3 mph - N/A   Overcast
6:54 PM 68.0 °F 66.9 °F 96% 29.88 in 1.8 mi NE 16.1 mph 25.3 mph N/A   Overcast
7:54 PM 68.0 °F 68.0 °F 100% 29.87 in 1.5 mi NE 13.8 mph - 0.01 in Rain Light Rain
8:08 PM 68.0 °F 68.0 °F 100% 29.88 in 2.5 mi NE 15.0 mph - 0.00 in   Overcast
8:14 PM 68.0 °F 68.0 °F 100% 29.88 in 1.8 mi ENE 13.8 mph - 0.00 in   Overcast
8:54 PM 68.0 °F 68.0 °F 100% 29.87 in 1.5 mi NE 13.8 mph - 0.00 in   Overcast
9:11 PM 68.0 °F 68.0 °F 100% 29.88 in 2.5 mi NE 16.1 mph - N/A   Overcast
9:20 PM 68.0 °F 68.0 °F 100% 29.88 in 3.0 mi ENE 15.0 mph - N/A   Overcast
9:54 PM 68.0 °F 68.0 °F 100% 29.87 in 2.5 mi ENE 13.8 mph - 0.00 in   Overcast
10:14 PM 68.0 °F 68.0 °F 100% 29.88 in 2.0 mi ENE 10.4 mph - N/A   Overcast
10:27 PM 68.0 °F 68.0 °F 100% 29.88 in 3.0 mi ENE 10.4 mph - N/A   Overcast
10:54 PM 68.0 °F 68.0 °F 100% 29.87 in 4.0 mi ENE 10.4 mph - N/A   Overcast
11:54 PM 68.0 °F 68.0 °F 100% 29.85 in 5.0 mi ENE 13.8 mph - 0.00 in Rain Light Rain